Find Starlink 34108

NORAD ID: 65872 Int'l Des: 2025-223 Owner: SPXS Country: US Constellation: starlink operational
LEOCIRCULAR

Aktuelle Ansicht

3D-Globus wird geladen...

Über Starlink 34108

Beschreibung wird geladen...

Nächste Überflüge

Passes for default location (London). Set your location on the main map for personalized predictions.

Höhenverlauf

Loading altitude history...

Zweizeiliger Elementsatz

1 65872U 25223U 26146.58182615 .00030792 00000-0 10475-2 0 9997
2 65872 53.1591 292.2028 0000809 99.2124 260.8968 15.30199713 36134
Epoch: 26. Mai 2026 • Age: 8 hours

Aktueller Status

Höhe 478.7 km
Geschwindigkeit 7.63 km/s
Subsatellitenpunkt 42.06°N, 151.23°W
Startdatum 3. Okt. 2025
Alter 0.6 years
Typ internet

Technische Details

Klassifizierung Payload
Masse 575.00 kg
Trockenmasse 530.00 kg
Gesamtmasse 575.00 kg
Länge 0.30 m
Durchmesser 4.10 m
Spannweite 29.00 m
Form Box + pan
Hersteller SPXS
Bus-Typ Starlink V2MO
Phasenstatus In Orbit
Besitzer/Staat SPXS/US

Most Searched